Location: Unspecified
(43.4680°N, 87.1740°E)
Time: 09:42:51
(UTC+00:00)

Cosmos 2219 - Pass Details

Date: 17 January 2020
Orbit: 833 x 860 km, 71.1° (Epoch: 19 February)

Event Time Altitude Azimuth Distance (km) Brightness Sun altitude
Rises 13:57:00 0° 224° (SW) 3,367 6.9 -31.3°
Reaches altitude 10° 13:59:33 10° 231° (SW) 2,438 6.1 -31.7°
Maximum altitude 14:04:50 42° 302° (WNW) 1,176 4.2 -32.7°
Enters shadow 14:05:27 41° 319° (NW) 1,203 4.2 -32.8°
